CDG2139 ZSAM-ZUCK

Flight info

Callsign CDG2139
Flight time N/A
Altitude 34100
Route NUSPA W598 DABER W155 VETIB DCT NUVGA DCT XEBUL DCT MABAG DCT WYN G586 QP B330 ELKAL W179 SUMUN W3 ASIPO W678 SEGDA
Aircraft B738/M-SDE2E3FGHIRWXY/LB1

Departure

Time N/A
Airport Xiamen Gaoqi International Airport (ZSAM)

Arrival

Time 2026-04-28 11:07
Airport Chongqing Jiangbei International Airport (ZUCK)
Time Latitude Longitude Altitude Speed Heading
2026-04-28 10:10 25.87374 109.24231 33992 ft 446 kts 281°
2026-04-28 10:10 25.89098 109.17607 34000 ft 445 kts 281°
2026-04-28 10:11 25.90821 109.10994 33989 ft 445 kts 281°
2026-04-28 10:11 25.92532 109.04411 33993 ft 445 kts 282°
2026-04-28 10:12 25.94276 108.97797 33992 ft 447 kts 282°
2026-04-28 10:12 25.96040 108.91187 34001 ft 446 kts 282°
2026-04-28 10:13 25.97788 108.84627 34000 ft 447 kts 282°
2026-04-28 10:13 25.99521 108.78093 34006 ft 445 kts 282°
2026-04-28 10:14 26.01260 108.71519 34009 ft 444 kts 282°
2026-04-28 10:14 26.02963 108.65104 34010 ft 445 kts 282°
2026-04-28 10:15 26.04711 108.58528 34014 ft 444 kts 282°
2026-04-28 10:15 26.06462 108.51936 34011 ft 444 kts 282°
2026-04-28 10:16 26.08198 108.45367 34010 ft 446 kts 282°
2026-04-28 10:16 26.10127 108.38775 34022 ft 447 kts 287°
2026-04-28 10:17 26.12658 108.32449 34032 ft 451 kts 290°
2026-04-28 10:17 26.15411 108.26205 34053 ft 449 kts 291°
2026-04-28 10:18 26.18170 108.19984 34070 ft 450 kts 291°
2026-04-28 10:18 26.20922 108.13711 34067 ft 450 kts 291°
2026-04-28 10:19 26.23641 108.07457 34064 ft 449 kts 290°
2026-04-28 10:19 26.26339 108.01209 34064 ft 450 kts 290°
2026-04-28 10:20 26.29036 107.94943 34067 ft 448 kts 290°
2026-04-28 10:20 26.31714 107.88708 34069 ft 447 kts 290°
2026-04-28 10:21 26.34380 107.82483 34081 ft 444 kts 291°
2026-04-28 10:21 26.37003 107.76361 34083 ft 436 kts 291°
2026-04-28 10:22 26.39593 107.70295 34092 ft 433 kts 291°
2026-04-28 10:22 26.42168 107.64250 34096 ft 436 kts 291°
2026-04-28 10:23 26.44769 107.58146 34098 ft 434 kts 291°
2026-04-28 10:23 26.47357 107.52064 34117 ft 433 kts 291°
2026-04-28 10:24 26.49946 107.45965 34120 ft 432 kts 291°
2026-04-28 10:24 26.52524 107.39868 34116 ft 433 kts 291°
2026-04-28 10:25 26.55095 107.33787 34113 ft 431 kts 291°
2026-04-28 10:25 26.57638 107.27775 34123 ft 430 kts 291°
2026-04-28 10:26 26.60199 107.21722 34126 ft 429 kts 291°
2026-04-28 10:26 26.62744 107.15694 34126 ft 429 kts 291°
2026-04-28 10:27 26.65279 107.09702 34127 ft 428 kts 291°
2026-04-28 10:27 26.67819 107.03725 34127 ft 426 kts 291°
2026-04-28 10:28 26.70366 106.97721 34130 ft 427 kts 291°
2026-04-28 10:29 26.74190 106.88802 34143 ft 426 kts 293°
2026-04-28 10:29 26.77663 106.83411 34153 ft 438 kts 312°
2026-04-28 10:30 26.82833 106.79600 34159 ft 449 kts 329°
2026-04-28 10:30 26.88800 106.77380 34164 ft 463 kts 346°
2026-04-28 10:31 26.95268 106.76748 34171 ft 468 kts 353°
2026-04-28 10:31 27.01798 106.76536 34172 ft 467 kts 354°
2026-04-28 10:32 27.08323 106.76338 34174 ft 467 kts 353°
2026-04-28 10:32 27.14846 106.76085 34157 ft 468 kts 353°
2026-04-28 10:33 27.21324 106.75788 34157 ft 466 kts 353°
2026-04-28 10:33 27.27850 106.75462 34160 ft 467 kts 353°
2026-04-28 10:34 27.34331 106.75130 34160 ft 466 kts 353°
2026-04-28 10:34 27.40832 106.74866 34161 ft 468 kts 355°
2026-04-28 10:35 27.47381 106.74862 34167 ft 468 kts 356°
2026-04-28 10:35 27.53904 106.74922 34167 ft 469 kts 356°
2026-04-28 10:36 27.60497 106.74973 34165 ft 468 kts 356°
2026-04-28 10:36 27.67032 106.75005 34165 ft 469 kts 356°
2026-04-28 10:37 27.73595 106.75023 34170 ft 469 kts 356°
2026-04-28 10:37 27.80127 106.75031 34175 ft 467 kts 356°
2026-04-28 10:38 27.86647 106.75036 34166 ft 469 kts 355°
2026-04-28 10:38 27.93178 106.75036 34184 ft 468 kts 356°
2026-04-28 10:39 27.99661 106.75037 34189 ft 469 kts 356°
2026-04-28 10:39 28.06241 106.75039 34190 ft 468 kts 356°
2026-04-28 10:40 28.12757 106.75045 34198 ft 468 kts 356°
2026-04-28 10:40 28.19288 106.75050 34202 ft 468 kts 356°
2026-04-28 10:41 28.25823 106.75053 34203 ft 469 kts 356°
2026-04-28 10:41 28.32361 106.75015 34197 ft 467 kts 353°
2026-04-28 10:42 28.38866 106.74341 34201 ft 464 kts 348°
2026-04-28 10:42 28.45298 106.73322 34200 ft 465 kts 347°
2026-04-28 10:43 28.51693 106.72281 34195 ft 464 kts 348°
2026-04-28 10:43 28.58146 106.71256 34181 ft 465 kts 348°
2026-04-28 10:44 28.64554 106.70274 34180 ft 463 kts 348°
2026-04-28 10:44 28.71005 106.69318 34176 ft 465 kts 350°
2026-04-28 10:45 28.77539 106.68929 33884 ft 466 kts 356°
2026-04-28 10:45 28.80752 106.68927 33401 ft 461 kts 356°
2026-04-28 10:45 28.83970 106.68965 32808 ft 460 kts 357°
2026-04-28 10:45 28.87195 106.69011 32104 ft 460 kts 357°
2026-04-28 10:46 28.90376 106.69053 31399 ft 460 kts 357°
2026-04-28 10:46 28.93567 106.69074 30802 ft 457 kts 357°
2026-04-28 10:46 28.96765 106.68980 30165 ft 453 kts 352°
2026-04-28 10:46 28.99858 106.68361 29582 ft 444 kts 339°
2026-04-28 10:47 29.02636 106.67018 29035 ft 433 kts 327°
2026-04-28 10:47 29.05121 106.65134 28456 ft 427 kts 318°
2026-04-28 10:47 29.07358 106.62894 27874 ft 421 kts 312°
2026-04-28 10:47 29.09360 106.60516 27308 ft 416 kts 308°
2026-04-28 10:48 29.11276 106.58014 26728 ft 413 kts 307°
2026-04-28 10:48 29.13100 106.55512 26163 ft 410 kts 306°
2026-04-28 10:48 29.14904 106.52983 25590 ft 407 kts 306°
2026-04-28 10:48 29.16663 106.50494 25032 ft 404 kts 305°
2026-04-28 10:49 29.18422 106.48007 24468 ft 401 kts 305°
2026-04-28 10:49 29.20193 106.45508 23915 ft 398 kts 306°
2026-04-28 10:49 29.21916 106.43080 23381 ft 396 kts 305°
2026-04-28 10:49 29.23654 106.40637 22834 ft 394 kts 305°
2026-04-28 10:50 29.25375 106.38226 22302 ft 391 kts 306°
2026-04-28 10:50 29.27097 106.35812 21759 ft 389 kts 306°
2026-04-28 10:50 29.28832 106.33474 21267 ft 387 kts 308°
2026-04-28 10:50 29.30783 106.31332 20714 ft 390 kts 318°
2026-04-28 10:51 29.33106 106.29721 20167 ft 394 kts 332°
2026-04-28 10:51 29.35742 106.28689 19587 ft 397 kts 343°
2026-04-28 10:51 29.38443 106.28214 19260 ft 391 kts 351°
2026-04-28 10:51 29.41159 106.28090 18922 ft 386 kts 358°
2026-04-28 10:52 29.43836 106.28422 18517 ft 383 kts
2026-04-28 10:52 29.46411 106.29169 18183 ft 378 kts 13°
2026-04-28 10:52 29.48878 106.30065 17829 ft 372 kts 15°
2026-04-28 10:52 29.51307 106.30998 17477 ft 365 kts 15°
2026-04-28 10:53 29.53709 106.31918 17050 ft 360 kts 15°
2026-04-28 10:53 29.56082 106.32783 16611 ft 357 kts 15°
2026-04-28 10:53 29.58469 106.33626 16161 ft 354 kts 14°
2026-04-28 10:53 29.60818 106.34442 15702 ft 350 kts 14°
2026-04-28 10:54 29.63125 106.35239 15327 ft 345 kts 14°
2026-04-28 10:54 29.65390 106.36050 15133 ft 334 kts 17°
2026-04-28 10:54 29.67481 106.37158 14966 ft 325 kts 31°
2026-04-28 10:54 29.69079 106.38896 14754 ft 320 kts 54°
2026-04-28 10:55 29.69852 106.41253 14596 ft 316 kts 81°
2026-04-28 10:55 29.69711 106.43763 14443 ft 310 kts 103°
2026-04-28 10:55 29.69021 106.46039 14249 ft 302 kts 113°
2026-04-28 10:55 29.67814 106.48011 13969 ft 299 kts 139°
2026-04-28 10:56 29.66022 106.49134 13578 ft 299 kts 166°
2026-04-28 10:56 29.63962 106.49311 13173 ft 297 kts 189°
2026-04-28 10:56 29.61989 106.48672 12795 ft 293 kts 206°
2026-04-28 10:56 29.60153 106.47604 12442 ft 291 kts 210°
2026-04-28 10:57 29.58335 106.46594 12080 ft 291 kts 204°
2026-04-28 10:57 29.56421 106.45809 11780 ft 288 kts 199°
2026-04-28 10:57 29.54509 106.45161 11469 ft 286 kts 197°
2026-04-28 10:57 29.52602 106.44540 11160 ft 284 kts 198°
2026-04-28 10:58 29.50708 106.43916 10829 ft 282 kts 197°
2026-04-28 10:58 29.48829 106.43282 10516 ft 280 kts 198°
2026-04-28 10:58 29.46972 106.42646 10215 ft 279 kts 198°
2026-04-28 10:58 29.45072 106.42154 9949 ft 276 kts 186°
2026-04-28 10:59 29.43192 106.42314 9743 ft 268 kts 159°
2026-04-28 10:59 29.41668 106.43472 9339 ft 266 kts 126°
2026-04-28 10:59 29.40823 106.45357 8833 ft 268 kts 103°
2026-04-28 10:59 29.40375 106.47442 8237 ft 277 kts 100°
2026-04-28 11:00 29.40097 106.49603 7909 ft 271 kts 89°
2026-04-28 11:00 29.40315 106.51701 7707 ft 259 kts 65°
2026-04-28 11:00 29.41267 106.53327 7557 ft 243 kts 39°
2026-04-28 11:00 29.42718 106.54241 7172 ft 238 kts 16°
2026-04-28 11:01 29.44326 106.54715 6803 ft 237 kts 11°
2026-04-28 11:01 29.45925 106.55193 6465 ft 236 kts 14°
2026-04-28 11:01 29.47490 106.55752 6135 ft 234 kts 15°
2026-04-28 11:01 29.49042 106.56298 5805 ft 232 kts 15°
2026-04-28 11:02 29.50578 106.56826 5485 ft 229 kts 15°
2026-04-28 11:02 29.52095 106.57348 5166 ft 227 kts 15°
2026-04-28 11:02 29.53603 106.57865 4845 ft 225 kts 15°
2026-04-28 11:02 29.55101 106.58379 4537 ft 222 kts 15°
2026-04-28 11:03 29.56561 106.58881 4233 ft 220 kts 15°
2026-04-28 11:03 29.57997 106.59375 3933 ft 207 kts 16°
2026-04-28 11:03 29.59326 106.59830 3660 ft 191 kts 18°
2026-04-28 11:03 29.60556 106.60251 3409 ft 176 kts 18°
2026-04-28 11:04 29.61671 106.60637 3201 ft 159 kts 19°
2026-04-28 11:04 29.62675 106.60983 2952 ft 145 kts 18°
2026-04-28 11:04 29.63613 106.61307 2787 ft 141 kts 17°
2026-04-28 11:04 29.64578 106.61638 2594 ft 142 kts 15°
2026-04-28 11:05 29.65526 106.61961 2407 ft 143 kts 15°
2026-04-28 11:05 29.66491 106.62296 2210 ft 143 kts 15°
2026-04-28 11:05 29.67442 106.62622 2020 ft 143 kts 14°
2026-04-28 11:05 29.68403 106.62951 1836 ft 143 kts 13°
2026-04-28 11:06 29.69364 106.63277 1638 ft 144 kts 14°
2026-04-28 11:06 29.70335 106.63613 1454 ft 146 kts 14°
2026-04-28 11:06 29.71290 106.63934 1369 ft 127 kts 15°
2026-04-28 11:06 29.71885 106.64145 1369 ft 58 kts 15°
2026-04-28 11:07 29.72144 106.64233 1369 ft 26 kts 16°
2026-04-28 11:07 29.72274 106.64299 1369 ft 19 kts 32°
2026-04-28 11:07 29.72377 106.64393 1369 ft 18 kts 39°
2026-04-28 11:07 29.72469 106.64495 1369 ft 17 kts 45°
2026-04-28 11:08 29.72521 106.64567 1369 ft 8 kts 81°
2026-04-28 11:08 29.72507 106.64635 1369 ft 8 kts 106°
2026-04-28 11:08 29.72487 106.64710 1369 ft 11 kts 106°
2026-04-28 11:08 29.72459 106.64820 1369 ft 16 kts 106°
2026-04-28 11:09 29.72416 106.64933 1369 ft 9 kts 163°
2026-04-28 11:09 29.72351 106.64921 1369 ft 10 kts 197°
2026-04-28 11:09 29.72269 106.64891 1369 ft 13 kts 196°
2026-04-28 11:09 29.72174 106.64861 1369 ft 14 kts 196°
2026-04-28 11:10 29.72115 106.64877 1369 ft 9 kts 119°
2026-04-28 11:10 29.72066 106.64906 1369 ft 8 kts 188°
2026-04-28 11:10 29.71999 106.64884 1369 ft 12 kts 197°
2026-04-28 11:10 29.71898 106.64850 1369 ft 17 kts 197°
2026-04-28 11:11 29.71764 106.64803 1369 ft 22 kts 197°
2026-04-28 11:11 29.71611 106.64751 1369 ft 22 kts 196°
2026-04-28 11:11 29.71460 106.64696 1369 ft 22 kts 196°
2026-04-28 11:11 29.71312 106.64647 1369 ft 22 kts 197°
2026-04-28 11:12 29.71207 106.64612 1369 ft 6 kts 197°
2026-04-28 11:12 29.71165 106.64619 1369 ft 6 kts 136°
2026-04-28 11:12 29.71135 106.64658 1369 ft 6 kts 130°
2026-04-28 11:12 29.71110 106.64692 1369 ft 3 kts 130°
2026-04-28 11:13 29.71101 106.64703 1369 ft 1 kts 129°
2026-04-28 11:13 29.71100 106.64704 1369 ft 0 kts 129°